Location: *
(44.3683°N, 6.6958°E)
Time: 05:36:42
(UTC+00:00)

Cosmos 2084 - Pass Details

Date: 14 October 2019
Orbit: 555 x 628 km, 62.8° (Epoch: 16 November)

Event Time Altitude Azimuth Distance (km) Brightness Sun altitude
Rises 18:13:10 0° 222° (SW) 2,897 7.6 -15.4°
Reaches altitude 10° 18:15:28 10° 224° (SW) 1,988 6.7 -15.8°
Maximum altitude 18:19:58 73° 309° (NW) 649 3.7 -16.6°
Enters shadow 18:24:05 12° 34° (NE) 1,830 5.7 -17.3°
